This is the latest recevied weather packets stored in our database for station/object EA1GHG-11. If no packets are shown the sender has not sent any weather packets the latest 10 day(s).
| Time | Temp. | Humidity | Pressure | Rain* | Wind** | Luminosity | Snow |
|---|---|---|---|---|---|---|---|
| 1788069997 | 15° C | 100% | 1023.4 hPa | - | - | - | - |
| 1788068497 | 15° C | 100% | 1023.2 hPa | - | - | - | - |
| 1788066997 | 14.44° C | 100% | 1023.3 hPa | - | - | - | - |
| 1788065497 | 15° C | 100% | 1023.2 hPa | - | - | - | - |
| 1788063997 | 15.56° C | 100% | 1023.2 hPa | - | - | - | - |
| 1788062497 | 15.56° C | 100% | 1023.2 hPa | - | - | - | - |
| 1788060997 | 15.56° C | 100% | 1023.4 hPa | - | - | - | - |
| 1788059497 | 16.11° C | 100% | 1023.6 hPa | - | - | - | - |
| 1788058033 | 16.11° C | 100% | 1023.8 hPa | - | - | - | - |
| 1788057997 | 16.11° C | 100% | 1023.8 hPa | - | - | - | - |
| 1788056496 | 16.67° C | 100% | 1023.8 hPa | - | - | - | - |
| 1788054996 | 16.67° C | 100% | 1023.7 hPa | - | - | - | - |
| 1788053496 | 17.22° C | 100% | 1023.9 hPa | - | - | - | - |
| 1788052898 | 17.78° C | 100% | 1023.9 hPa | - | - | - | - |
| 1788051398 | 18.33° C | 100% | 1024 hPa | - | - | - | - |
| 1788049898 | 17.78° C | 100% | 1024.1 hPa | - | - | - | - |
| 1788048398 | 18.33° C | 100% | 1024.2 hPa | - | - | - | - |
| 1788046897 | 17.78° C | 100% | 1024.3 hPa | - | - | - | - |
| 1788045397 | 18.33° C | 100% | 1024.3 hPa | - | - | - | - |
| 1788043897 | 18.33° C | 100% | 1024.3 hPa | - | - | - | - |
| 1788042397 | 18.33° C | 100% | 1024.4 hPa | - | - | - | - |
| 1788040897 | 18.33° C | 100% | 1024.5 hPa | - | - | - | - |
| 1788039397 | 18.89° C | 100% | 1024.4 hPa | - | - | - | - |
| 1788037897 | 19.44° C | 100% | 1024.2 hPa | - | - | - | - |
| 1788036397 | 18.89° C | 100% | 1024.4 hPa | - | - | - | - |
* Rain since midnight (hover to see other rain measurements)
** Current wind speed in m/s (hover to see current wind gust speed)